^^
Saratoga-Weather Station Historical Data
Daily Summary for August 31, 2020 Units:  Metric    English   Both
Daily Weekly Monthly Yearly Custom
  High: Low: Average:
Temperature: 16.9 °C 8.7 °C 12.6 °C
Dew Point: 12.2 °C 7.8 °C 10.1 °C
Humidity: 95% 67% 85%
Wind Speed: 16.3km/h 0km/h 1.4km/h
Wind Gust: 20.9km/h - -
Wind- - SE
Pressure: 1024.7 hPa 1016.6 hPa -
Precipitation: 0.0 mm    
Historical Graphs
 
 
Tabular Data for August 31, 2020
Time Temperature Dew Point Pressure Wind Wind Speed Wind Gust Humidity Rainfall Rate (Hourly) solar
00:01 12.2 °C 10.3 °C 1024.7 hPa Calm   1.6 km/h 88% 0.0 mm 0 W/m2
00:06 12.2 °C 10.4 °C 1024.7 hPa Calm   1.6 km/h 89% 0.0 mm 0 W/m2
00:11 12.1 °C 10.3 °C 1024.7 hPa Calm     89% 0.0 mm 0 W/m2
00:16 12 °C 10.1 °C 1024.7 hPa Calm   1.6 km/h 88% 0.0 mm 0 W/m2
00:21 12 °C 10.1 °C 1024.7 hPa Calm     88% 0.0 mm 0 W/m2
00:26 12 °C 10.1 °C 1024.7 hPa Calm   4.8 km/h 88% 0.0 mm 0 W/m2
00:31 12 °C 10.1 °C 1024.7 hPa Calm   1.6 km/h 88% 0.0 mm 0 W/m2
00:37 11.9 °C 10.1 °C 1024.7 hPa Calm   3.2 km/h 89% 0.0 mm 0 W/m2
00:42 11.9 °C 10 °C 1024.7 hPa SSE 1.4 km/h 4.8 km/h 88% 0.0 mm 0 W/m2
00:47 12 °C 10.1 °C 1024.4 hPa Calm     88% 0.0 mm 0 W/m2
00:52 12 °C 10.1 °C 1024.4 hPa Calm   4.8 km/h 88% 0.0 mm 0 W/m2
00:57 12 °C 10.2 °C 1024.4 hPa Calm     89% 0.0 mm 0 W/m2
01:02 11.9 °C 10.1 °C 1024.4 hPa Calm   1.6 km/h 89% 0.0 mm 0 W/m2
01:07 11.8 °C 9.9 °C 1024.7 hPa WSW 4.8 km/h 4.8 km/h 88% 0.0 mm 0 W/m2
01:12 11.9 °C 10 °C 1024.4 hPa Calm   1.6 km/h 88% 0.0 mm 0 W/m2
01:17 11.9 °C 9.8 °C 1024.4 hPa SSE 3.2 km/h 4.8 km/h 87% 0.0 mm 0 W/m2
01:22 12.1 °C 10 °C 1024.4 hPa Calm   1.6 km/h 87% 0.0 mm 0 W/m2
01:27 12.1 °C 10.2 °C 1024.4 hPa Calm     88% 0.0 mm 0 W/m2
01:32 12.1 °C 10.2 °C 1024.0 hPa Calm     88% 0.0 mm 0 W/m2
01:37 11.9 °C 10 °C 1024.4 hPa Calm   3.2 km/h 88% 0.0 mm 0 W/m2
01:42 11.9 °C 10.1 °C 1024.0 hPa Calm     89% 0.0 mm 0 W/m2
01:47 11.9 °C 10.1 °C 1024.0 hPa Calm   3.2 km/h 89% 0.0 mm 0 W/m2
01:52 11.8 °C 10.2 °C 1024.0 hPa Calm     90% 0.0 mm 0 W/m2
01:57 11.7 °C 10.1 °C 1024.0 hPa Calm     90% 0.0 mm 0 W/m2
02:02 11.7 °C 10.1 °C 1024.0 hPa Calm     90% 0.0 mm 0 W/m2
02:07 11.7 °C 10.1 °C 1024.0 hPa Calm     90% 0.0 mm 0 W/m2
02:12 11.7 °C 10.1 °C 1024.0 hPa Calm     90% 0.0 mm 0 W/m2
02:17 11.6 °C 10 °C 1024.0 hPa Calm     90% 0.0 mm 0 W/m2
02:22 11.6 °C 10 °C 1024.0 hPa Calm     90% 0.0 mm 0 W/m2
02:27 11.6 °C 10 °C 1024.0 hPa Calm   1.6 km/h 90% 0.0 mm 0 W/m2
02:32 11.6 °C 10 °C 1024.0 hPa Calm     90% 0.0 mm 0 W/m2
02:37 11.5 °C 9.9 °C 1024.0 hPa Calm   1.6 km/h 90% 0.0 mm 0 W/m2
02:42 11.4 °C 9.8 °C 1024.0 hPa Calm     90% 0.0 mm 0 W/m2
02:47 11.4 °C 10 °C 1024.0 hPa Calm   1.6 km/h 91% 0.0 mm 0 W/m2
02:52 11.4 °C 10 °C 1024.0 hPa Calm     91% 0.0 mm 0 W/m2
02:57 11.3 °C 9.9 °C 1024.0 hPa Calm   1.6 km/h 91% 0.0 mm 0 W/m2
03:02 11.3 °C 9.9 °C 1024.0 hPa Calm     91% 0.0 mm 0 W/m2
03:07 11.3 °C 9.9 °C 1024.0 hPa Calm     91% 0.0 mm 0 W/m2
03:12 11.3 °C 10 °C 1023.7 hPa West 1.4 km/h 1.6 km/h 92% 0.0 mm 0 W/m2
03:17 11.2 °C 9.9 °C 1023.7 hPa West 1.4 km/h 1.6 km/h 92% 0.0 mm 0 W/m2
03:22 11.2 °C 9.9 °C 1023.7 hPa Calm     92% 0.0 mm 0 W/m2
03:27 11.2 °C 9.9 °C 1023.7 hPa Calm   1.6 km/h 92% 0.0 mm 0 W/m2
03:32 11.2 °C 9.9 °C 1023.7 hPa Calm     92% 0.0 mm 0 W/m2
03:37 11.1 °C 9.8 °C 1023.7 hPa Calm     92% 0.0 mm 0 W/m2
03:42 11.1 °C 9.8 °C 1023.7 hPa Calm     92% 0.0 mm 0 W/m2
03:47 11.1 °C 9.8 °C 1023.7 hPa Calm     92% 0.0 mm 0 W/m2
03:52 11.1 °C 9.8 °C 1023.4 hPa Calm     92% 0.0 mm 0 W/m2
03:57 11.1 °C 10 °C 1023.4 hPa Calm     93% 0.0 mm 0 W/m2
04:02 11 °C 9.9 °C 1023.4 hPa Calm     93% 0.0 mm 0 W/m2
04:07 10.9 °C 9.7 °C 1023.4 hPa Calm     92% 0.0 mm 0 W/m2
04:12 10.9 °C 9.7 °C 1023.4 hPa Calm     92% 0.0 mm 0 W/m2
04:17 10.9 °C 9.7 °C 1023.7 hPa West 1.4 km/h 1.6 km/h 92% 0.0 mm 0 W/m2
04:22 10.8 °C 9.6 °C 1023.7 hPa Calm     92% 0.0 mm 0 W/m2
04:27 10.8 °C 9.6 °C 1023.4 hPa Calm     92% 0.0 mm 0 W/m2
04:32 10.8 °C 9.6 °C 1023.7 hPa Calm     92% 0.0 mm 0 W/m2
04:37 10.8 °C 9.6 °C 1023.7 hPa Calm     92% 0.0 mm 0 W/m2
04:42 10.8 °C 9.6 °C 1023.4 hPa Calm     92% 0.0 mm 0 W/m2
04:47 10.8 °C 9.7 °C 1023.4 hPa Calm     93% 0.0 mm 0 W/m2
04:52 10.8 °C 9.7 °C 1023.4 hPa Calm     93% 0.0 mm 0 W/m2
04:57 10.8 °C 9.7 °C 1023.4 hPa Calm     93% 0.0 mm 0 W/m2
05:02 10.8 °C 9.7 °C 1023.4 hPa Calm   1.6 km/h 93% 0.0 mm 0 W/m2
05:07 10.7 °C 9.6 °C 1023.4 hPa Calm     93% 0.0 mm 0 W/m2
05:12 10.7 °C 9.6 °C 1023.4 hPa Calm   1.6 km/h 93% 0.0 mm 0 W/m2
05:17 10.7 °C 9.6 °C 1023.4 hPa Calm     93% 0.0 mm 0 W/m2
05:22 10.6 °C 9.5 °C 1023.4 hPa Calm     93% 0.0 mm 0 W/m2
05:27 10.6 °C 9.5 °C 1023.4 hPa Calm     93% 0.0 mm 0 W/m2
05:33 10.5 °C 9.3 °C 1023.4 hPa Calm     92% 0.0 mm 0 W/m2
05:38 10.4 °C 9.2 °C 1023.4 hPa Calm     92% 0.0 mm 0 W/m2
05:43 10.3 °C 9.2 °C 1023.4 hPa West 1.4 km/h 1.6 km/h 93% 0.0 mm 0 W/m2
05:48 10.3 °C 9.2 °C 1023.4 hPa Calm     93% 0.0 mm 0 W/m2
05:53 10.3 °C 9.2 °C 1023.4 hPa Calm     93% 0.0 mm 0 W/m2
05:58 10.3 °C 9.2 °C 1023.4 hPa Calm     93% 0.0 mm 0 W/m2
06:03 10.3 °C 9.2 °C 1023.4 hPa Calm     93% 0.0 mm 0 W/m2
06:08 10.3 °C 9.2 °C 1023.0 hPa Calm     93% 0.0 mm 0 W/m2
06:13 10.3 °C 9.2 °C 1023.0 hPa Calm     93% 0.0 mm 0 W/m2
06:18 10.3 °C 9.2 °C 1023.0 hPa Calm     93% 0.0 mm 0 W/m2
06:23 10.2 °C 9.1 °C 1023.0 hPa Calm     93% 0.0 mm 0 W/m2
06:28 10.2 °C 9.1 °C 1023.0 hPa Calm     93% 0.0 mm 0 W/m2
06:33 10.1 °C 9 °C 1023.0 hPa Calm   1.6 km/h 93% 0.0 mm 0 W/m2
06:38 10.1 °C 9 °C 1022.7 hPa Calm   1.6 km/h 93% 0.0 mm 0 W/m2
06:43 10 °C 8.9 °C 1022.7 hPa Calm     93% 0.0 mm 0 W/m2
06:48 9.9 °C 8.8 °C 1022.7 hPa Calm     93% 0.0 mm 0 W/m2
06:53 9.9 °C 8.8 °C 1022.7 hPa Calm     93% 0.0 mm 0 W/m2
06:58 9.9 °C 8.8 °C 1023.0 hPa Calm     93% 0.0 mm 0 W/m2
07:03 9.8 °C 8.7 °C 1023.0 hPa Calm     93% 0.0 mm 0 W/m2
07:08 9.8 °C 8.7 °C 1023.0 hPa Calm     93% 0.0 mm 0 W/m2
07:13 9.8 °C 8.7 °C 1023.0 hPa Calm     93% 0.0 mm 0 W/m2
07:18 9.8 °C 8.7 °C 1022.7 hPa Calm     93% 0.0 mm 0 W/m2
07:23 9.8 °C 8.7 °C 1023.0 hPa Calm     93% 0.0 mm 0 W/m2
07:28 9.7 °C 8.6 °C 1023.0 hPa Calm     93% 0.0 mm 0 W/m2
07:33 9.7 °C 8.6 °C 1022.7 hPa Calm     93% 0.0 mm 5 W/m2
07:43 9.6 °C 8.5 °C 1022.7 hPa Calm     93% 0.0 mm 9 W/m2
07:48 9.5 °C 8.4 °C 1022.7 hPa Calm     93% 0.0 mm 11 W/m2
07:53 9.4 °C 8.3 °C 1022.7 hPa Calm     93% 0.0 mm 14 W/m2
07:58 9.3 °C 8.2 °C 1022.7 hPa Calm     93% 0.0 mm 14 W/m2
08:03 9.2 °C 8.1 °C 1022.7 hPa Calm     93% 0.0 mm 19 W/m2
08:08 9.1 °C 8 °C 1022.7 hPa Calm     93% 0.0 mm 21 W/m2
08:13 8.9 °C 7.8 °C 1022.7 hPa Calm     93% 0.0 mm 21 W/m2
08:18 8.9 °C 7.8 °C 1022.7 hPa Calm     93% 0.0 mm 21 W/m2
08:23 8.8 °C 7.9 °C 1022.7 hPa Calm     94% 0.0 mm 25 W/m2
08:28 8.7 °C 7.8 °C 1022.7 hPa Calm     94% 0.0 mm 25 W/m2
08:33 8.7 °C 7.8 °C 1022.7 hPa Calm     94% 0.0 mm 26 W/m2
08:38 8.7 °C 7.8 °C 1022.4 hPa Calm     94% 0.0 mm 28 W/m2
08:43 8.7 °C 7.8 °C 1022.4 hPa Calm     94% 0.0 mm 28 W/m2
08:48 8.7 °C 7.8 °C 1022.4 hPa Calm     94% 0.0 mm 30 W/m2
08:53 8.8 °C 7.9 °C 1022.4 hPa WNW 1.4 km/h 1.6 km/h 94% 0.0 mm 79 W/m2
08:58 8.9 °C 8.1 °C 1022.4 hPa Calm   1.6 km/h 95% 0.0 mm 67 W/m2
09:03 9.2 °C 8.4 °C 1022.4 hPa Calm   3.2 km/h 95% 0.0 mm 148 W/m2
09:08 9.4 °C 8.6 °C 1022.4 hPa Calm   3.2 km/h 95% 0.0 mm 109 W/m2
09:13 9.7 °C 8.9 °C 1022.4 hPa ENE 3.2 km/h 4.8 km/h 95% 0.0 mm 74 W/m2
09:18 10.2 °C 9.3 °C 1022.4 hPa NE 1.4 km/h 9.7 km/h 94% 0.0 mm 127 W/m2
09:23 10.7 °C 9.3 °C 1022.0 hPa East 1.4 km/h 9.7 km/h 91% 0.0 mm 107 W/m2
09:28 10.9 °C 9.3 °C 1022.0 hPa East 1.4 km/h 11.3 km/h 90% 0.0 mm 128 W/m2
09:33 11.3 °C 9.4 °C 1022.0 hPa Calm   4.8 km/h 88% 0.0 mm 79 W/m2
09:38 11.4 °C 9.3 °C 1022.0 hPa ENE 3.2 km/h 11.3 km/h 87% 0.0 mm 40 W/m2
09:43 11.6 °C 9.3 °C 1021.7 hPa ENE 1.4 km/h 4.8 km/h 86% 0.0 mm 39 W/m2
09:48 11.8 °C 9.4 °C 1021.7 hPa NE 4.7 km/h 11.3 km/h 85% 0.0 mm 72 W/m2
09:53 11.9 °C 9.5 °C 1021.7 hPa NE 1.4 km/h 6.4 km/h 85% 0.0 mm 60 W/m2
09:58 12 °C 9.4 °C 1021.7 hPa East 1.4 km/h 11.3 km/h 84% 0.0 mm 53 W/m2
10:04 12.2 °C 9.4 °C 1021.7 hPa ENE 3.2 km/h 8 km/h 83% 0.0 mm 49 W/m2
10:09 12.3 °C 9.3 °C 1021.3 hPa East 1.4 km/h 9.7 km/h 82% 0.0 mm 47 W/m2
10:14 12.5 °C 9.3 °C 1021.3 hPa ESE 1.4 km/h 6.4 km/h 81% 0.0 mm 44 W/m2
10:19 12.6 °C 9.2 °C 1021.3 hPa East 3.2 km/h 8 km/h 80% 0.0 mm 51 W/m2
10:24 12.7 °C 9.3 °C 1021.3 hPa ESE 7.9 km/h 16.1 km/h 80% 0.0 mm 49 W/m2
10:29 12.7 °C 9.3 °C 1021.3 hPa East 6.4 km/h 9.7 km/h 80% 0.0 mm 44 W/m2
10:34 12.8 °C 9.2 °C 1021.3 hPa ENE 4.7 km/h 16.1 km/h 79% 0.0 mm 40 W/m2
10:39 12.9 °C 9.2 °C 1021.3 hPa NNE 3.2 km/h 17.7 km/h 78% 0.0 mm 39 W/m2
10:44 13.1 °C 9.5 °C 1021.3 hPa East 9.7 km/h 12.9 km/h 79% 0.0 mm 44 W/m2
10:49 13.1 °C 9.4 °C 1021.0 hPa NNE 4.7 km/h 14.5 km/h 78% 0.0 mm 39 W/m2
10:54 13.2 °C 9.4 °C 1021.0 hPa ENE 4.7 km/h 14.5 km/h 78% 0.0 mm 47 W/m2
10:59 13.3 °C 9.5 °C 1021.0 hPa NE 3.2 km/h 6.4 km/h 78% 0.0 mm 39 W/m2
11:04 13.3 °C 9.4 °C 1021.3 hPa East 3.2 km/h 14.5 km/h 77% 0.0 mm 42 W/m2
11:09 13.3 °C 9.5 °C 1021.3 hPa ESE 4.7 km/h 6.4 km/h 78% 0.0 mm 49 W/m2
11:14 13.4 °C 9.6 °C 1021.0 hPa ENE 3.2 km/h 14.5 km/h 78% 0.0 mm 121 W/m2
11:19 13.4 °C 9.6 °C 1021.0 hPa ENE 6.4 km/h 8 km/h 78% 0.0 mm 49 W/m2
11:24 13.5 °C 9.5 °C 1020.7 hPa SE 6.4 km/h 14.5 km/h 77% 0.0 mm 42 W/m2
11:29 13.6 °C 9.6 °C 1020.7 hPa ESE 6.4 km/h 17.7 km/h 77% 0.0 mm 47 W/m2
11:34 13.6 °C 9.6 °C 1020.7 hPa East 11.1 km/h 12.9 km/h 77% 0.0 mm 51 W/m2
11:39 13.7 °C 9.7 °C 1020.7 hPa East 4.7 km/h 11.3 km/h 77% 0.0 mm 58 W/m2
11:44 13.7 °C 9.7 °C 1020.3 hPa SE 1.4 km/h 9.7 km/h 77% 0.0 mm 44 W/m2
11:49 13.8 °C 9.8 °C 1020.0 hPa ENE 6.4 km/h 8 km/h 77% 0.0 mm 213 W/m2
11:54 13.9 °C 9.7 °C 1020.3 hPa NE 1.4 km/h 16.1 km/h 76% 0.0 mm 281 W/m2
11:59 14.1 °C 9.9 °C 1020.0 hPa ENE 4.7 km/h 6.4 km/h 76% 0.0 mm 167 W/m2
12:04 14.2 °C 10 °C 1020.3 hPa Calm   16.1 km/h 76% 0.0 mm 76 W/m2
12:09 14.2 °C 10 °C 1020.0 hPa ENE 3.2 km/h 9.7 km/h 76% 0.0 mm 67 W/m2
12:14 14.3 °C 10.1 °C 1020.0 hPa ENE 3.2 km/h 11.3 km/h 76% 0.0 mm 53 W/m2
12:19 14.4 °C 10 °C 1020.0 hPa ENE 3.2 km/h 14.5 km/h 75% 0.0 mm 111 W/m2
12:24 14.6 °C 10.2 °C 1020.0 hPa ESE 1.4 km/h 11.3 km/h 75% 0.0 mm 54 W/m2
12:29 14.7 °C 10.3 °C 1020.0 hPa East 7.9 km/h 17.7 km/h 75% 0.0 mm 42 W/m2
12:34 14.8 °C 10.4 °C 1020.0 hPa ESE 4.7 km/h 11.3 km/h 75% 0.0 mm 42 W/m2
12:39 14.7 °C 10.1 °C 1019.6 hPa NE 1.4 km/h 17.7 km/h 74% 0.0 mm 77 W/m2
12:44 14.9 °C 10.3 °C 1019.6 hPa SE 6.4 km/h 11.3 km/h 74% 0.0 mm 46 W/m2
12:49 15 °C 10.4 °C 1019.6 hPa East 1.4 km/h 14.5 km/h 74% 0.0 mm 69 W/m2
12:54 15.1 °C 10.5 °C 1019.3 hPa SE 4.7 km/h 16.1 km/h 74% 0.0 mm 47 W/m2
12:59 15.2 °C 10.6 °C 1019.3 hPa East 3.2 km/h 4.8 km/h 74% 0.0 mm 58 W/m2
13:04 15.2 °C 10.6 °C 1019.3 hPa ESE 3.2 km/h 4.8 km/h 74% 0.0 mm 53 W/m2
13:09 15.2 °C 10.4 °C 1019.3 hPa East 1.4 km/h 4.8 km/h 73% 0.0 mm 40 W/m2
13:14 15.3 °C 10.5 °C 1019.3 hPa ESE 3.2 km/h 6.4 km/h 73% 0.0 mm 37 W/m2
13:19 15.3 °C 10.7 °C 1019.3 hPa SE 3.2 km/h 8 km/h 74% 0.0 mm 47 W/m2
13:24 15.3 °C 10.7 °C 1019.0 hPa East 9.7 km/h 16.1 km/h 74% 0.0 mm 95 W/m2
13:29 15.3 °C 10.7 °C 1019.0 hPa NE 9.7 km/h 12.9 km/h 74% 0.0 mm 90 W/m2
13:34 15.4 °C 10.8 °C 1019.0 hPa SE 3.2 km/h 16.1 km/h 74% 0.0 mm 63 W/m2
13:39 15.4 °C 10.8 °C 1019.0 hPa East 6.4 km/h 8 km/h 74% 0.0 mm 74 W/m2
13:44 15.6 °C 11 °C 1019.0 hPa Calm   3.2 km/h 74% 0.0 mm 102 W/m2
13:49 15.7 °C 11.1 °C 1019.0 hPa Calm   3.2 km/h 74% 0.0 mm 156 W/m2
13:54 15.6 °C 11 °C 1018.6 hPa SE 3.2 km/h 8 km/h 74% 0.0 mm 40 W/m2
13:59 15.6 °C 11 °C 1018.3 hPa ESE 1.4 km/h 4.8 km/h 74% 0.0 mm 46 W/m2
14:04 15.6 °C 11 °C 1018.3 hPa ENE 4.7 km/h 6.4 km/h 74% 0.0 mm 42 W/m2
14:09 15.7 °C 11.1 °C 1018.3 hPa Calm   4.8 km/h 74% 0.0 mm 42 W/m2
14:14 15.6 °C 11.4 °C 1018.3 hPa Calm   3.2 km/h 76% 0.0 mm 46 W/m2
14:19 15.5 °C 11.1 °C 1018.3 hPa Calm   6.4 km/h 75% 0.0 mm 58 W/m2
14:24 15.7 °C 11.3 °C 1018.0 hPa ENE 1.4 km/h 3.2 km/h 75% 0.0 mm 69 W/m2
14:29 15.8 °C 11.2 °C 1018.3 hPa NE 3.2 km/h 6.4 km/h 74% 0.0 mm 72 W/m2
14:34 15.9 °C 11.1 °C 1018.3 hPa NNE 1.4 km/h 3.2 km/h 73% 0.0 mm 69 W/m2
14:39 16.2 °C 10.5 °C 1018.0 hPa North 1.4 km/h 3.2 km/h 69% 0.0 mm 67 W/m2
14:44 16.3 °C 10.6 °C 1018.0 hPa Calm   4.8 km/h 69% 0.0 mm 54 W/m2
14:49 16.4 °C 10.7 °C 1018.0 hPa West 4.7 km/h 6.4 km/h 69% 0.0 mm 54 W/m2
14:54 16.4 °C 10.9 °C 1018.0 hPa NNW 3.2 km/h 4.8 km/h 70% 0.0 mm 58 W/m2
14:59 16.3 °C 10.8 °C 1018.0 hPa NE 1.4 km/h 6.4 km/h 70% 0.0 mm 65 W/m2
15:04 16.4 °C 10.7 °C 1018.0 hPa ENE 3.2 km/h 4.8 km/h 69% 0.0 mm 72 W/m2
15:09 16.4 °C 10.5 °C 1018.0 hPa Calm   3.2 km/h 68% 0.0 mm 81 W/m2
15:14 16.5 °C 10.8 °C 1018.0 hPa NW 1.4 km/h 4.8 km/h 69% 0.0 mm 93 W/m2
15:20 16.6 °C 10.9 °C 1018.0 hPa NNW 1.4 km/h 3.2 km/h 69% 0.0 mm 98 W/m2
15:25 16.6 °C 10.4 °C 1018.0 hPa Calm   4.8 km/h 67% 0.0 mm 105 W/m2
15:30 16.7 °C 10.8 °C 1018.0 hPa Calm   3.2 km/h 68% 0.0 mm 98 W/m2
15:35 16.7 °C 10.8 °C 1018.0 hPa Calm   6.4 km/h 68% 0.0 mm 91 W/m2
15:40 16.8 °C 10.9 °C 1018.0 hPa Calm   3.2 km/h 68% 0.0 mm 79 W/m2
15:45 16.9 °C 11.2 °C 1018.0 hPa Calm   6.4 km/h 69% 0.0 mm 70 W/m2
15:50 16.8 °C 11.3 °C 1018.0 hPa West 1.4 km/h 3.2 km/h 70% 0.0 mm 65 W/m2
15:55 16.8 °C 11.3 °C 1018.0 hPa WNW 1.4 km/h 6.4 km/h 70% 0.0 mm 63 W/m2
16:00 16.6 °C 11.5 °C 1018.0 hPa Calm   3.2 km/h 72% 0.0 mm 62 W/m2
16:05 16.2 °C 11.1 °C 1017.6 hPa NE 1.4 km/h 6.4 km/h 72% 0.0 mm 56 W/m2
16:10 16.1 °C 11.7 °C 1017.6 hPa Calm   1.6 km/h 75% 0.0 mm 49 W/m2
16:15 15.7 °C 11.5 °C 1018.0 hPa Calm   4.8 km/h 76% 0.0 mm 42 W/m2
16:20 15.4 °C 11.6 °C 1018.0 hPa Calm     78% 0.0 mm 35 W/m2
16:25 15.1 °C 11.5 °C 1018.0 hPa Calm   1.6 km/h 79% 0.0 mm 28 W/m2
16:30 14.8 °C 11 °C 1018.0 hPa East 1.4 km/h 3.2 km/h 78% 0.0 mm 26 W/m2
16:35 14.8 °C 11.4 °C 1018.0 hPa Calm   3.2 km/h 80% 0.0 mm 23 W/m2
16:40 14.6 °C 11.2 °C 1017.6 hPa East 1.4 km/h 4.8 km/h 80% 0.0 mm 19 W/m2
16:45 14.4 °C 11.2 °C 1017.6 hPa Calm   1.6 km/h 81% 0.0 mm 18 W/m2
16:50 14.2 °C 11.2 °C 1017.6 hPa Calm   3.2 km/h 82% 0.0 mm 16 W/m2
16:55 13.9 °C 11.1 °C 1017.6 hPa Calm   3.2 km/h 83% 0.0 mm 14 W/m2
17:00 13.7 °C 11 °C 1017.3 hPa Calm   1.6 km/h 84% 0.0 mm 12 W/m2
17:05 13.5 °C 10.8 °C 1017.3 hPa Calm     84% 0.0 mm 11 W/m2
17:10 13.4 °C 10.9 °C 1017.3 hPa Calm     85% 0.0 mm 7 W/m2
17:15 13.2 °C 10.7 °C 1017.3 hPa Calm     85% 0.0 mm 0 W/m2
17:20 13.1 °C 10.6 °C 1017.3 hPa Calm   3.2 km/h 85% 0.0 mm 0 W/m2
17:25 12.8 °C 10.5 °C 1017.3 hPa East 1.4 km/h 1.6 km/h 86% 0.0 mm 0 W/m2
17:30 12.6 °C 10.3 °C 1017.3 hPa Calm   3.2 km/h 86% 0.0 mm 0 W/m2
17:35 12.4 °C 10.3 °C 1017.3 hPa East 1.4 km/h 1.6 km/h 87% 0.0 mm 0 W/m2
17:40 12.2 °C 10.1 °C 1017.3 hPa Calm     87% 0.0 mm 0 W/m2
17:45 12 °C 10.1 °C 1017.3 hPa Calm   1.6 km/h 88% 0.0 mm 0 W/m2
17:50 11.9 °C 10.1 °C 1017.6 hPa Calm   3.2 km/h 89% 0.0 mm 0 W/m2
17:55 11.8 °C 10 °C 1017.6 hPa Calm     89% 0.0 mm 0 W/m2
18:00 11.7 °C 10.1 °C 1017.3 hPa Calm     90% 0.0 mm 0 W/m2
18:05 11.6 °C 10 °C 1017.3 hPa Calm     90% 0.0 mm 0 W/m2
18:10 11.6 °C 10 °C 1017.6 hPa Calm     90% 0.0 mm 0 W/m2
18:15 11.5 °C 10.1 °C 1017.6 hPa Calm     91% 0.0 mm 0 W/m2
18:20 11.5 °C 10.1 °C 1017.6 hPa Calm     91% 0.0 mm 0 W/m2
18:25 11.5 °C 10.1 °C 1017.6 hPa Calm     91% 0.0 mm 0 W/m2
18:30 11.4 °C 10 °C 1017.3 hPa Calm     91% 0.0 mm 0 W/m2
18:36 11.4 °C 10 °C 1016.9 hPa Calm     91% 0.0 mm 0 W/m2
18:41 11.4 °C 10 °C 1017.3 hPa Calm     91% 0.0 mm 0 W/m2
18:46 11.4 °C 10 °C 1017.3 hPa Calm     91% 0.0 mm 0 W/m2
18:51 11.3 °C 9.9 °C 1016.9 hPa Calm     91% 0.0 mm 0 W/m2
18:56 11.3 °C 9.9 °C 1017.3 hPa Calm     91% 0.0 mm 0 W/m2
19:01 11.2 °C 9.8 °C 1016.9 hPa Calm     91% 0.0 mm 0 W/m2
19:06 11.2 °C 9.9 °C 1016.9 hPa Calm     92% 0.0 mm 0 W/m2
19:11 11.2 °C 9.9 °C 1017.3 hPa Calm   1.6 km/h 92% 0.0 mm 0 W/m2
19:16 11.2 °C 9.9 °C 1017.3 hPa Calm     92% 0.0 mm 0 W/m2
19:21 11.2 °C 9.9 °C 1017.3 hPa Calm   1.6 km/h 92% 0.0 mm 0 W/m2
19:26 11.2 °C 9.9 °C 1016.9 hPa Calm     92% 0.0 mm 0 W/m2
19:31 11.3 °C 10 °C 1016.9 hPa Calm     92% 0.0 mm 0 W/m2
19:36 11.3 °C 10.2 °C 1016.9 hPa Calm     93% 0.0 mm 0 W/m2
19:41 11.3 °C 10.2 °C 1016.9 hPa Calm     93% 0.0 mm 0 W/m2
19:46 11.4 °C 10.3 °C 1016.9 hPa Calm     93% 0.0 mm 0 W/m2
19:51 11.4 °C 10.3 °C 1016.9 hPa Calm     93% 0.0 mm 0 W/m2
19:56 11.6 °C 10.5 °C 1016.9 hPa East 1.4 km/h 3.2 km/h 93% 0.0 mm 0 W/m2
20:01 11.6 °C 10.5 °C 1016.9 hPa Calm     93% 0.0 mm 0 W/m2
20:06 11.7 °C 10.6 °C 1016.9 hPa Calm     93% 0.0 mm 0 W/m2
20:11 11.8 °C 10.7 °C 1016.9 hPa Calm     93% 0.0 mm 0 W/m2
20:16 11.9 °C 10.6 °C 1016.9 hPa East 1.4 km/h 4.8 km/h 92% 0.0 mm 0 W/m2
20:21 12.1 °C 10.8 °C 1016.9 hPa SSE 1.4 km/h 3.2 km/h 92% 0.0 mm 0 W/m2
20:26 12.2 °C 10.9 °C 1016.9 hPa SSE 1.4 km/h 4.8 km/h 92% 0.0 mm 0 W/m2
20:31 12.3 °C 11 °C 1016.9 hPa ENE 1.4 km/h 6.4 km/h 92% 0.0 mm 0 W/m2
20:36 12.4 °C 11 °C 1016.9 hPa Calm   1.6 km/h 91% 0.0 mm 0 W/m2
20:41 12.6 °C 11.2 °C 1016.6 hPa Calm   6.4 km/h 91% 0.0 mm 0 W/m2
20:46 12.7 °C 11.1 °C 1016.6 hPa ENE 3.2 km/h 4.8 km/h 90% 0.0 mm 0 W/m2
20:51 12.9 °C 11.1 °C 1016.6 hPa ENE 3.2 km/h 6.4 km/h 89% 0.0 mm 0 W/m2
20:56 13.2 °C 11.3 °C 1016.6 hPa NE 6.4 km/h 6.4 km/h 88% 0.0 mm 0 W/m2
21:01 13.5 °C 11.4 °C 1016.9 hPa ESE 3.2 km/h 3.2 km/h 87% 0.0 mm 0 W/m2
21:06 13.6 °C 11.5 °C 1016.6 hPa Calm   3.2 km/h 87% 0.0 mm 0 W/m2
21:11 13.6 °C 11.3 °C 1016.9 hPa NE 1.4 km/h 1.6 km/h 86% 0.0 mm 0 W/m2
21:16 13.5 °C 11.4 °C 1016.6 hPa East 1.4 km/h 6.4 km/h 87% 0.0 mm 0 W/m2
21:21 13.4 °C 11.5 °C 1016.6 hPa East 1.4 km/h 1.6 km/h 88% 0.0 mm 0 W/m2
21:26 13.3 °C 11.4 °C 1016.6 hPa ENE 3.2 km/h 3.2 km/h 88% 0.0 mm 0 W/m2
21:31 13.2 °C 11.4 °C 1016.6 hPa ENE 3.2 km/h 4.8 km/h 89% 0.0 mm 0 W/m2
21:36 13.2 °C 11.3 °C 1016.6 hPa West 1.4 km/h 3.2 km/h 88% 0.0 mm 0 W/m2
21:41 13.3 °C 11.5 °C 1016.9 hPa SSE 1.4 km/h 6.4 km/h 89% 0.0 mm 0 W/m2
21:46 13.4 °C 11.5 °C 1016.6 hPa Calm   9.7 km/h 88% 0.0 mm 0 W/m2
21:51 13.6 °C 11.5 °C 1016.6 hPa NE 1.4 km/h 6.4 km/h 87% 0.0 mm 0 W/m2
21:56 13.9 °C 11.6 °C 1016.6 hPa North 3.2 km/h 9.7 km/h 86% 0.0 mm 0 W/m2
22:01 14.2 °C 11.5 °C 1016.6 hPa West 1.4 km/h 3.2 km/h 84% 0.0 mm 0 W/m2
22:06 14.3 °C 11.5 °C 1016.6 hPa Calm   8 km/h 83% 0.0 mm 0 W/m2
22:11 14.4 °C 11.5 °C 1016.6 hPa Calm   3.2 km/h 83% 0.0 mm 0 W/m2
22:16 14.5 °C 11.6 °C 1016.6 hPa Calm     83% 0.0 mm 0 W/m2
22:21 14.4 °C 11.7 °C 1016.6 hPa Calm     84% 0.0 mm 0 W/m2
22:26 14.3 °C 11.6 °C 1016.6 hPa Calm   1.6 km/h 84% 0.0 mm 0 W/m2
22:31 14.3 °C 11.6 °C 1016.6 hPa West 3.2 km/h 4.8 km/h 84% 0.0 mm 0 W/m2
22:36 14.4 °C 11.4 °C 1016.9 hPa NW 3.2 km/h 6.4 km/h 82% 0.0 mm 0 W/m2
22:41 14.9 °C 11.5 °C 1016.9 hPa West 4.7 km/h 19.3 km/h 80% 0.0 mm 0 W/m2
22:46 15.4 °C 11.6 °C 1016.9 hPa NNW 7.9 km/h 14.5 km/h 78% 0.0 mm 0 W/m2
22:51 15.7 °C 11.5 °C 1016.9 hPa SW 13 km/h 17.7 km/h 76% 0.0 mm 0 W/m2
22:56 15.9 °C 11.7 °C 1016.9 hPa Calm   4.8 km/h 76% 0.0 mm 0 W/m2
23:01 15.9 °C 11.7 °C 1016.9 hPa WNW 4.7 km/h 17.7 km/h 76% 0.0 mm 0 W/m2
23:06 15.8 °C 11.8 °C 1016.9 hPa WSW 16.3 km/h 20.9 km/h 77% 0.0 mm 0 W/m2
23:11 15.8 °C 12 °C 1016.9 hPa NE 3.2 km/h 11.3 km/h 78% 0.0 mm 0 W/m2
23:16 15.8 °C 12 °C 1016.9 hPa WNW 3.2 km/h 11.3 km/h 78% 0.0 mm 0 W/m2
23:21 15.7 °C 12.1 °C 1016.9 hPa WNW 3.2 km/h 6.4 km/h 79% 0.0 mm 0 W/m2
23:27 15.7 °C 12.1 °C 1016.9 hPa NW 1.4 km/h 4.8 km/h 79% 0.0 mm 0 W/m2
23:32 15.7 °C 12.1 °C 1016.9 hPa NW 4.7 km/h 6.4 km/h 79% 0.0 mm 0 W/m2
23:37 15.7 °C 12.1 °C 1016.9 hPa South 1.4 km/h 14.5 km/h 79% 0.0 mm 0 W/m2
23:42 15.8 °C 12.2 °C 1016.6 hPa Calm   6.4 km/h 79% 0.0 mm 0 W/m2
23:47 15.7 °C 12.1 °C 1016.9 hPa NE 3.2 km/h 14.5 km/h 79% 0.0 mm 0 W/m2
23:52 15.7 °C 12.1 °C 1016.6 hPa NNW 1.4 km/h 4.8 km/h 79% 0.0 mm 0 W/m2
23:57 15.6 °C 12.2 °C 1016.6 hPa Calm   8 km/h 80% 0.0 mm 0 W/m2
Juneau County Weather
Compliments of Weather Underground - 4 mb